User: anonymous   Login
Location: Unspecified
(0.0000°N, 0.0000°E)
Time: 11:36:01
(UTC+00:00)
Language:

Meteor 2-11 - Orbit

View from above orbital plane
View from above orbital plane
View from above satellite
View from above satellite

Ground track
Ground track

The orbit data is extracted from the following two-line orbital elements,

1 15099U 84072A   18018.19631907  .00000047  00000-0  28400-4 0  9998
2 15099  82.5323 328.5132 0014517  83.0786 277.2026 13.85033949695060
Epoch (UTC): 18 January 2018 04:42:41
Eccentricity: 0.0014517
inclination: 82.5323°
perigee height: 935 km
apogee height: 957 km
right ascension of ascending node: 328.5132°
argument of perigee: 83.0786°
revolutions per day: 13.85033949
mean anomaly at epoch: 277.2026°
orbit number at epoch: 69506

The dashed part of the orbit path shows where the satellite is in the earth's shadow,  

DLR